Location: La Silve
(44.2414°N, 5.8889°E)
Time: 05:25:02
(UTC+00:00)

Cosmos 1867 - Pass Details

Date: 01 December 2020
Orbit: 775 x 800 km, 65.0° (Epoch: 27 January)

Event Time Altitude Azimuth Distance (km) Brightness Sun altitude
Rises 16:30:20 0° 225° (SW) 3,265 8.4 -5.8°
Reaches altitude 10° 16:32:46 10° 229° (SW) 2,344 7.5 -6.2°
Maximum altitude 16:38:05 58° 309° (NW) 922 4.1 -7.1°
Drops below altitude 10° 16:43:28 10° 28° (NNE) 2,373 5.6 -8.0°
Enters shadow 16:44:57 - 31° (NNE) 2,928 6.0 -8.2°
